| time (UTC) | temp C | wind direction | speed KPH | gust KPH | rain 1hr cm | rain 24hr cm | rain mn cm | humidity % | barometer mb |
| 20260506201451 | 18 | 309 | 11.3 | 19.3 | 0.00 | 0.00 | 0.00 | 86 | 1007.3 |
| 20260506195953 | 18 | 319 | 9.7 | 20.9 | 0.00 | 0.00 | 0.00 | 86 | 1007.3 |
| 20260506194451 | 17 | 331 | 11.3 | 20.9 | 0.00 | 0.00 | 0.00 | 86 | 1007.5 |
| 20260506192952 | 17 | 284 | 11.3 | 24.1 | 0.00 | 0.00 | 0.00 | 88 | 1007.6 |
| 20260506191451 | 16 | 272 | 9.7 | 22.5 | 0.00 | 0.00 | 0.00 | 89 | 1007.7 |
| 20260506185954 | 16 | 330 | 9.7 | 22.5 | 0.00 | 0.00 | 0.00 | 90 | 1007.9 |
| 20260506184451 | 16 | 329 | 9.7 | 22.5 | 0.00 | 0.00 | 0.00 | 90 | 1008.1 |
| 20260506182952 | 16 | 323 | 9.7 | 27.4 | 0.00 | 0.00 | 0.00 | 90 | 1008.1 |
| 20260506181453 | 16 | 289 | 9.7 | 17.7 | 0.00 | 0.00 | 0.00 | 90 | 1008.2 |
| 20260506174451 | 16 | 305 | 12.9 | 29.0 | 0.00 | 0.00 | 0.00 | 91 | 1008.3 |
| 20260506172952 | 15 | 304 | 12.9 | 27.4 | 0.00 | 0.00 | 0.00 | 91 | 1008.4 |
| 20260506171451 | 15 | 331 | 14.5 | 33.8 | 0.00 | 0.00 | 0.00 | 91 | 1008.4 |
| 20260506165953 | 15 | 316 | 12.9 | 29.0 | 0.00 | 0.00 | 0.00 | 91 | 1008.5 |
| 20260506164451 | 15 | 305 | 14.5 | 32.2 | 0.00 | 0.00 | 0.00 | 91 | 1008.5 |
| 20260506161451 | 15 | 308 | 14.5 | 27.4 | 0.00 | 0.00 | 0.00 | 92 | 1008.8 |
| 20260506155955 | 15 | 263 | 12.9 | 27.4 | 0.00 | 0.00 | 0.00 | 92 | 1008.6 |
| 20260506152952 | 15 | 330 | 9.7 | 16.1 | 0.00 | 0.00 | 0.00 | 91 | 1009.8 |
| 20260506151451 | 15 | 298 | 9.7 | 24.1 | 0.00 | 0.00 | 0.00 | 90 | 1009.8 |
| 20260506145954 | 15 | 263 | 9.7 | 20.9 | 0.00 | 0.00 | 0.00 | 90 | 1009.5 |
| 20260506144453 | 15 | 278 | 8.0 | 1054.1 | 0.00 | 0.00 | 0.00 | 89 | |
| 20260506142951 | 16 | 259 | 9.7 | 24.1 | 0.00 | 0.00 | 0.00 | 87 | 1009.8 |
| 20260506141451 | 16 | 266 | 9.7 | 29.0 | 0.00 | 0.00 | 0.00 | 87 | 1009.7 |
| 20260506135955 | 16 | 275 | 9.7 | 22.5 | 0.00 | 0.00 | 0.00 | 85 | 1009.7 |
| 20260506134451 | 17 | 256 | 14.5 | 32.2 | 0.00 | 0.00 | 0.00 | 81 | 1009.7 |
| 20260506132951 | 17 | 342 | 12.9 | 27.4 | 0.00 | 0.00 | 0.00 | 82 | 1009.5 |
| 20260506131451 | 17 | 298 | 12.9 | 25.7 | 0.00 | 0.00 | 0.00 | 82 | 1009.6 |
| 20260506125954 | 17 | 291 | 11.3 | 27.4 | 0.00 | 0.00 | 0.00 | 81 | 1009.6 |
| 20260506121451 | 17 | 293 | 12.9 | 25.7 | 0.00 | 0.00 | 0.00 | 80 | 1009.7 |
| 20260506115955 | 17 | 300 | 14.5 | 29.0 | 0.00 | 0.00 | 0.00 | 80 | 1009.4 |
| 20260506112951 | 17 | 293 | 12.9 | 25.7 | 0.00 | 0.00 | 0.00 | 80 | 1009.3 |
| 20260506111451 | 17 | 269 | 14.5 | 29.0 | 0.00 | 0.00 | 0.00 | 80 | 1009.2 |
| 20260506104451 | 17 | 309 | 14.5 | 29.0 | 0.00 | 0.00 | 0.00 | 80 | 1009.1 |
| 20260506102951 | 17 | 267 | 14.5 | 25.7 | 0.00 | 0.00 | 0.00 | 80 | 1009.0 |
| 20260506101451 | 17 | 286 | 11.3 | 27.4 | 0.00 | 0.00 | 0.00 | 80 | 1009.0 |
| 20260506095954 | 17 | 329 | 12.9 | 25.7 | 0.00 | 0.00 | 0.00 | 80 | 1009.0 |
| 20260506094451 | 17 | 294 | 14.5 | 25.7 | 0.00 | 0.00 | 0.00 | 79 | 1008.9 |
| 20260506091451 | 17 | 276 | 12.9 | 25.7 | 0.00 | 0.00 | 0.00 | 78 | 1009.2 |
| 20260506084452 | 18 | 271 | 14.5 | 27.4 | 0.00 | 0.00 | 0.00 | 77 | 1009.2 |
| 20260506082951 | 18 | 290 | 14.5 | 27.4 | 0.00 | 0.00 | 0.00 | 76 | 1009.1 |
| 20260506081451 | 18 | 289 | 16.1 | 35.4 | 0.00 | 0.00 | 0.00 | 76 | 1008.9 |
| 20260506072952 | 18 | 291 | 11.3 | 24.1 | 0.00 | 0.00 | 0.00 | 75 | 1009.3 |
| 20260506071451 | 18 | 289 | 9.7 | 24.1 | 0.00 | 0.00 | 0.00 | 75 | 1009.4 |
| 20260506061451 | 18 | 281 | 9.7 | 25.7 | 0.00 | 0.00 | 0.00 | 71 | 1009.9 |
| 20260506044452 | 20 | 220 | 8.0 | 20.9 | 0.00 | 0.00 | 0.00 | 65 | 1010.2 |
| 20260506034452 | 20 | 294 | 8.0 | 17.7 | 0.00 | 0.00 | 0.00 | 63 | 1010.3 |
| 20260506032952 | 20 | 314 | 8.0 | 17.7 | 0.00 | 0.00 | 0.00 | 63 | 1010.2 |
| 20260506031452 | 20 | 288 | 8.0 | 17.7 | 0.00 | 0.00 | 0.00 | 62 | 1010.2 |
| 20260506025954 | 20 | 266 | 8.0 | 25.7 | 0.00 | 0.00 | 0.00 | 62 | 1010.3 |
| 20260506024451 | 20 | 245 | 8.0 | 16.1 | 0.00 | 0.00 | 0.00 | 62 | 1010.4 |
| 20260506022952 | 20 | 284 | 9.7 | 17.7 | 0.00 | 0.00 | 0.00 | 61 | 1010.4 |
| 20260506021452 | 20 | 267 | 8.0 | 16.1 | 0.00 | 0.00 | 0.00 | 60 | 1010.4 |
| 20260506015955 | 21 | 288 | 11.3 | 20.9 | 0.00 | 0.00 | 0.00 | 59 | 1010.3 |
| 20260506014452 | 21 | 267 | 9.7 | 22.5 | 0.00 | 0.00 | 0.00 | 58 | 1010.1 |
| 20260506012952 | 21 | 266 | 9.7 | 19.3 | 0.00 | 0.00 | 0.00 | 57 | 1010.0 |
| 20260506011452 | 21 | 287 | 12.9 | 24.1 | 0.00 | 0.00 | 0.00 | 56 | 1009.8 |
| 20260506005955 | 22 | 288 | 9.7 | 22.5 | 0.00 | 0.00 | 0.00 | 55 | 1009.7 |
| 20260506004452 | 22 | 298 | 9.7 | 22.5 | 0.00 | 0.00 | 0.00 | 54 | 1009.5 |
| 20260506002952 | 22 | 249 | 11.3 | 24.1 | 0.00 | 0.00 | 0.00 | 52 | 1009.4 |
| 20260506001452 | 22 | 267 | 9.7 | 20.9 | 0.00 | 0.00 | 0.00 | 50 | 1009.3 |
| 20260505235955 | 22 | 327 | 6.4 | 16.1 | 0.00 | 0.00 | 0.00 | 49 | 1009.1 |
| 20260505232952 | 23 | 323 | 9.7 | 19.3 | 0.00 | 0.00 | 0.00 | 47 | 1008.9 |
| 20260505231451 | 23 | 299 | 11.3 | 20.9 | 0.00 | 0.00 | 0.00 | 47 | 1009.0 |
| 20260505225955 | 24 | 300 | 11.3 | 24.1 | 0.00 | 0.00 | 0.00 | 46 | 1008.9 |
| 20260505224453 | 24 | 276 | 14.5 | 37.0 | 0.00 | 0.00 | 0.00 | 45 | 1008.9 |
| 20260505222952 | 25 | 294 | 14.5 | 30.6 | 0.00 | 0.00 | 0.00 | 45 | 1008.9 |
| 20260505215955 | 25 | 295 | 11.3 | 32.2 | 0.00 | 0.00 | 0.00 | 45 | 1009.0 |
| 20260505214453 | 25 | 314 | 14.5 | 30.6 | 0.00 | 0.00 | 0.00 | 45 | 1009.0 |
| 20260505212952 | 25 | 304 | 12.9 | 27.4 | 0.00 | 0.00 | 0.00 | 45 | 1008.7 |
| 20260505211452 | 25 | 311 | 17.7 | 35.4 | 0.00 | 0.00 | 0.00 | 44 | 1008.8 |
| 20260505205956 | 25 | 302 | 14.5 | 37.0 | 0.00 | 0.00 | 0.00 | 45 | 1008.8 |
| 20260505202952 | 25 | 300 | 16.1 | 29.0 | 0.00 | 0.00 | 0.00 | 45 | 1008.9 |